When you browse on this site, cookies collect data to enhance your experience and personalize the content and advertising you see.
Visit our Privacy Policy to learn more. By continuing to use the site, you agree to this use of cookies and data.
  • In Austria
  • List of Countries
  • For 7 days
  • Water Temperature
  • Weather Map
  • News
  • Weather Widgets
  • user-avatar
    Login

    Hourly Weather Patia

    Today, 17 September, Tuesday

    Time Temperature Precipitation Wind Pressure Humidity
    00:00 +23°C° 0.1 mm 0 mps 709 mmHg 89%
    01:00 +22°C° 0.1 mm 0 mps 708 mmHg 89%
    02:00 +22°C° 0.1 mm 0 mps 708 mmHg 89%
    03:00 +22°C° 0.1 mm 0 mps 708 mmHg 88%
    04:00 +22°C° 0.1 mm 0 mps 708 mmHg 88%
    05:00 +22°C° 0 mm 0 mps 708 mmHg 86%
    06:00 +23°C° 0 mm 0 mps 708 mmHg 84%
    07:00 +23°C° 0 mm 0 mps 709 mmHg 83%
    08:00 +25°C° 0 mm 0 mps 709 mmHg 75%
    09:00 +29°C° 0 mm 1 mps 710 mmHg 67%
    10:00 +32°C° 0 mm 1 mps 710 mmHg 59%
    11:00 +33°C° 0.2 mm 1 mps 710 mmHg 55%
    12:00 +34°C° 0.2 mm 1 mps 709 mmHg 52%
    13:00 +35°C° 0.2 mm 1 mps 708 mmHg 48%
    14:00 +35°C° 0.6 mm 2 mps 708 mmHg 53%
    15:00 +32°C° 0.6 mm 2 mps 707 mmHg 59%
    16:00 +31°C° 0.6 mm 2 mps 707 mmHg 64%
    17:00 +30°C° 0.8 mm 2 mps 707 mmHg 72%
    18:00 +28°C° 0.8 mm 1 mps 707 mmHg 79%
    19:00 +26°C° 0.8 mm 1 mps 707 mmHg 86%
    20:00 +26°C° 0.5 mm 1 mps 708 mmHg 87%
    21:00 +25°C° 0.5 mm 1 mps 708 mmHg 87%
    22:00 +23°C° 0.5 mm 0 mps 709 mmHg 87%
    23:00 +23°C° 0.2 mm 0 mps 709 mmHg 88%

    Tomorrow, 18 September, Wednesday

    Time Temperature Precipitation Wind Pressure Humidity
    00:00 +23°C° 0.2 mm 0 mps 709 mmHg 88%
    01:00 +22°C° 0.2 mm 0 mps 708 mmHg 88%
    02:00 +22°C° 0.2 mm 0 mps 708 mmHg 88%
    03:00 +22°C° 0.2 mm 0 mps 708 mmHg 88%
    04:00 +22°C° 0.2 mm 0 mps 708 mmHg 87%
    05:00 +22°C° 0.1 mm 0 mps 708 mmHg 86%
    06:00 +23°C° 0.1 mm 0 mps 708 mmHg 84%
    07:00 +23°C° 0.1 mm 0 mps 709 mmHg 83%
    08:00 +25°C° 0 mm 0 mps 709 mmHg 76%
    09:00 +29°C° 0 mm 1 mps 709 mmHg 70%
    10:00 +31°C° 0 mm 1 mps 709 mmHg 64%
    11:00 +32°C° 0.3 mm 1 mps 709 mmHg 61%
    12:00 +33°C° 0.3 mm 1 mps 708 mmHg 58%
    13:00 +34°C° 0.3 mm 1 mps 708 mmHg 55%
    14:00 +32°C° 1 mm 1 mps 707 mmHg 61%
    15:00 +31°C° 1 mm 2 mps 707 mmHg 66%
    16:00 +30°C° 1 mm 2 mps 706 mmHg 71%
    17:00 +28°C° 1.5 mm 1 mps 707 mmHg 78%
    18:00 +27°C° 1.5 mm 1 mps 707 mmHg 85%
    19:00 +24°C° 1.5 mm 0 mps 707 mmHg 92%
    20:00 +23°C° 3.3 mm 0 mps 707 mmHg 93%
    21:00 +23°C° 3.3 mm 0 mps 708 mmHg 94%
    22:00 +23°C° 3.3 mm 0 mps 708 mmHg 95%
    23:00 +23°C° 1.2 mm 0 mps 708 mmHg 95%

    Day after tomorrow, 19 September, Thursday

    Time Temperature Precipitation Wind Pressure Humidity
    00:00 +23°C° 1.2 mm 0 mps 708 mmHg 95%
    01:00 +23°C° 1.2 mm 0 mps 707 mmHg 95%
    02:00 +23°C° 1.6 mm 0 mps 707 mmHg 95%
    03:00 +23°C° 1.6 mm 0 mps 707 mmHg 95%
    04:00 +22°C° 1.6 mm 0 mps 707 mmHg 95%
    05:00 +23°C° 0.4 mm 0 mps 707 mmHg 95%
    06:00 +23°C° 0.4 mm 0 mps 708 mmHg 94%
    07:00 +23°C° 0.4 mm 0 mps 708 mmHg 94%
    08:00 +24°C° 0.1 mm 0 mps 708 mmHg 87%
    09:00 +26°C° 0.1 mm 0 mps 709 mmHg 80%
    10:00 +30°C° 0.1 mm 1 mps 709 mmHg 73%
    11:00 +30°C° 0.8 mm 1 mps 708 mmHg 71%
    12:00 +31°C° 0.8 mm 1 mps 708 mmHg 68%
    13:00 +32°C° 0.8 mm 1 mps 708 mmHg 65%
    14:00 +31°C° 1.4 mm 1 mps 707 mmHg 71%
    15:00 +29°C° 1.4 mm 1 mps 707 mmHg 76%
    16:00 +28°C° 1.4 mm 1 mps 706 mmHg 82%
    17:00 +27°C° 1.6 mm 1 mps 706 mmHg 86%
    18:00 +26°C° 1.6 mm 1 mps 706 mmHg 91%
    19:00 +23°C° 1.6 mm 0 mps 707 mmHg 95%
    20:00 +23°C° 0.8 mm 0 mps 707 mmHg 95%
    21:00 +23°C° 0.8 mm 0 mps 707 mmHg 95%
    22:00 +23°C° 0.8 mm 0 mps 708 mmHg 95%
    23:00 +23°C° 0.4 mm 0 mps 708 mmHg 95%

    20 September, Friday

    Time Temperature Precipitation Wind Pressure Humidity
    00:00 +22°C° 0.4 mm 0 mps 708 mmHg 94%
    01:00 +22°C° 0.4 mm 0 mps 708 mmHg 94%
    02:00 +22°C° 0.2 mm 0 mps 707 mmHg 94%
    03:00 +22°C° 0.2 mm 0 mps 707 mmHg 94%
    04:00 +22°C° 0.2 mm 0 mps 707 mmHg 94%
    05:00 +22°C° 0.1 mm 0 mps 708 mmHg 93%
    06:00 +23°C° 0.1 mm 0 mps 708 mmHg 93%
    07:00 +23°C° 0.1 mm 0 mps 709 mmHg 92%
    08:00 +24°C° 0.2 mm 0 mps 709 mmHg 87%
    09:00 +25°C° 0.2 mm 0 mps 709 mmHg 82%
    10:00 +28°C° 0.2 mm 1 mps 710 mmHg 77%
    11:00 +30°C° 0.4 mm 1 mps 709 mmHg 72%
    12:00 +29°C° 0.4 mm 0 mps 709 mmHg 66%
    13:00 +31°C° 0.4 mm 0 mps 709 mmHg 61%
    14:00 +32°C° 0.7 mm 1 mps 708 mmHg 62%
    15:00 +32°C° 0.7 mm 1 mps 708 mmHg 64%
    16:00 +31°C° 0.7 mm 1 mps 707 mmHg 66%
    17:00 +30°C° 1.4 mm 1 mps 708 mmHg 73%
    18:00 +28°C° 1.4 mm 1 mps 708 mmHg 81%
    19:00 +26°C° 1.4 mm 1 mps 708 mmHg 88%
    20:00 +26°C° 1.1 mm 1 mps 708 mmHg 89%
    21:00 +25°C° 1.1 mm 1 mps 709 mmHg 90%
    22:00 +23°C° 1.1 mm 0 mps 709 mmHg 91%
    23:00 +23°C° 0.4 mm 0 mps 709 mmHg 91%

    21 September, Saturday

    Time Temperature Precipitation Wind Pressure Humidity
    00:00 +23°C° 0.4 mm 0 mps 709 mmHg 92%
    01:00 +23°C° 0.4 mm 0 mps 709 mmHg 92%
    02:00 +23°C° 0.3 mm 0 mps 708 mmHg 92%
    03:00 +23°C° 0.3 mm 0 mps 708 mmHg 92%
    04:00 +23°C° 0.3 mm 0 mps 708 mmHg 92%
    05:00 +23°C° 0 mm 0 mps 709 mmHg 92%
    06:00 +23°C° 0 mm 0 mps 709 mmHg 91%
    07:00 +23°C° 0 mm 0 mps 709 mmHg 90%
    08:00 +25°C° 0.1 mm 0 mps 710 mmHg 83%
    09:00 +28°C° 0.1 mm 1 mps 710 mmHg 76%
    10:00 +30°C° 0.1 mm 1 mps 710 mmHg 70%
    11:00 +32°C° 0.4 mm 1 mps 709 mmHg 65%
    12:00 +33°C° 0.4 mm 1 mps 709 mmHg 60%
    13:00 +34°C° 0.4 mm 1 mps 708 mmHg 55%
    14:00 +33°C° 0.7 mm 1 mps 708 mmHg 58%
    15:00 +32°C° 0.7 mm 2 mps 707 mmHg 61%
    16:00 +31°C° 0.7 mm 2 mps 707 mmHg 64%
    17:00 +29°C° 0.7 mm 2 mps 707 mmHg 72%
    18:00 +27°C° 0.7 mm 1 mps 707 mmHg 80%
    19:00 +25°C° 0.7 mm 1 mps 707 mmHg 88%
    20:00 +25°C° 0.2 mm 1 mps 708 mmHg 88%
    21:00 +25°C° 0.2 mm 1 mps 708 mmHg 89%
    22:00 +22°C° 0.2 mm 0 mps 709 mmHg 89%
    23:00 +22°C° 0 mm 0 mps 709 mmHg 89%

    22 September, Sunday

    Time Temperature Precipitation Wind Pressure Humidity
    00:00 +22°C° 0 mm 0 mps 708 mmHg 89%
    01:00 +22°C° 0 mm 0 mps 708 mmHg 89%
    02:00 +22°C° 0.1 mm 0 mps 708 mmHg 89%
    03:00 +22°C° 0.1 mm 0 mps 708 mmHg 89%
    04:00 +22°C° 0.1 mm 0 mps 708 mmHg 89%
    05:00 +22°C° 0.1 mm 0 mps 708 mmHg 89%
    06:00 +22°C° 0.1 mm 0 mps 709 mmHg 89%
    07:00 +22°C° 0.1 mm 0 mps 709 mmHg 89%
    08:00 +24°C° 0 mm 0 mps 710 mmHg 82%
    09:00 +26°C° 0 mm 0 mps 710 mmHg 74%
    10:00 +28°C° 0 mm 0 mps 711 mmHg 67%
    11:00 +31°C° 0.2 mm 1 mps 710 mmHg 62%
    12:00 +32°C° 0.2 mm 1 mps 709 mmHg 58%
    13:00 +34°C° 0.2 mm 1 mps 709 mmHg 53%
    14:00 +33°C° 0.7 mm 1 mps 708 mmHg 58%
    15:00 +32°C° 0.7 mm 2 mps 708 mmHg 62%
    16:00 +31°C° 0.7 mm 2 mps 707 mmHg 67%
    17:00 +29°C° 1.1 mm 2 mps 708 mmHg 74%
    18:00 +27°C° 1.1 mm 1 mps 708 mmHg 80%
    19:00 +25°C° 1.1 mm 1 mps 708 mmHg 87%
    20:00 +25°C° 0.3 mm 1 mps 709 mmHg 87%
    21:00 +24°C° 0.3 mm 1 mps 709 mmHg 87%
    22:00 +22°C° 0.3 mm 0 mps 709 mmHg 88%
    23:00 +22°C° 0 mm 0 mps 709 mmHg 88%
    Show more